#timestamp,LO_Frequency,Hit,StdDev 
1541574015.1,286046997.7,P
1541574016.0,286046997.7,N
1541574035.8,286046997.2,P
1541574055.6,286046997.7,N
1541574075.5,286046996.9,Y
1541574095.3,286046999.9,P
1541574115.2,286046999.7,N
1541574135.9,286047002.1,N
1541574155.7,286047005.6,Y
1541574175.6,286047006.8,P
1541574195.4,286047006.2,N
1541574215.2,286047010.4,P
1541574235.1,286047007.7,N
1541574236.0,286047007.7,N
1541574255.8,286047008.8,N
1541574275.7,286047006.6,N
1541574295.5,286047004.9,N
1541574315.3,286047002.9,N
1541574335.2,286047004.9,N
1541574355.9,286047007.0,N
1541574375.7,286047005.7,N
1541574395.6,286047001.3,N
1541574415.4,286047003.8,N
1541574435.2,286047003.1,N
1541574455.1,286047001.3,N
1541574456.0,286047001.3,N
1541574475.8,286047002.9,N
1541574495.7,286047003.1,N
1541574515.5,286047003.1,N
1541574535.3,286047004.1,N
1541574555.2,286047002.3,N
1541574575.0,286047000.3,N
1541574575.9,286047000.3,N
1541574595.7,286047000.5,N
1541574615.6,286047000.4,N
1541574635.4,286047001.1,N
1541574655.3,286047000.7,N
1541574675.1,286047001.1,N
1541574676.0,286047001.1,N
1541574695.8,286046999.0,N
1541574715.7,286046998.6,N
1541574735.5,286046996.6,N
1541574755.3,286046996.5,N
1541574775.2,286046998.7,N
1541574795.0,286046998.4,N
1541574795.9,286046998.4,N
1541574815.8,286046998.3,N
1541574835.6,286046998.4,N
1541574855.4,286046998.4,N
1541574875.3,286046998.3,N
1541574895.1,286046998.4,N
1541574915.9,286046999.6,N
1541574935.7,286046998.9,N
1541574955.5,286047000.8,N
1541574975.4,286047000.5,N
1541574995.2,286047000.1,N
1541575015.0,286046998.2,N
1541575015.9,286046998.2,N
1541575035.8,286046998.7,N
1541575055.6,286047000.7,N
1541575075.5,286047005.6,Y
1541575095.3,286047004.9,P
1541575115.1,286047004.9,N
1541575135.9,286047005.3,N
1541575155.7,286047003.1,N
1541575175.5,286047003.6,N
1541575195.4,286047002.1,N
1541575215.2,286047002.5,N
1541575235.1,286047001.8,N
1541575236.0,286047001.8,N
1541575255.8,286047004.6,N
1541575275.6,286047007.3,Y
1541575295.5,286047003.2,P
1541575315.3,286047006.0,P
1541575335.1,286047001.7,N
1541575355.9,286047000.2,N
1541575375.7,286047011.9,Y
1541575395.6,286046996.0,P
1541575415.4,286046996.0,N
1541575435.2,286046995.0,N
1541575455.1,286046997.7,N
1541575456.0,286046997.7,N
1541575475.8,286046995.1,N
1541575495.6,286046997.9,N
1541575515.5,286046997.6,N
1541575535.3,286046999.6,N
1541575555.2,286046999.5,N
1541575575.9,286046997.3,N
1541575595.7,286046997.2,N
1541575615.6,286046997.2,N
1541575635.4,286046995.9,N
1541575655.2,286046995.7,N
1541575675.1,286046993.4,Y
1541575676.0,286046993.4,P
1541575695.8,286046998.0,N
1541575715.7,286046997.3,N
1541575735.5,286046997.5,N
1541575755.3,286046995.2,N
1541575775.2,286046995.9,N
1541575795.0,286046995.3,Y
1541575795.9,286046995.3,P
1541575815.8,286047001.2,N
1541575835.6,286046999.4,N
1541575855.4,286046996.6,N
1541575875.3,286046999.4,N
1541575895.1,286046998.4,N
1541575915.8,286046998.2,N
1541575935.7,286047000.1,N
1541575955.5,286047002.3,N
1541575975.4,286047002.7,N
1541575995.2,286047004.4,N
1541576015.0,286047002.9,N
1541576015.9,286047002.9,N
1541576035.8,286047001.5,N
1541576055.6,286047004.0,N
1541576075.4,286047003.7,N
1541576095.3,286047005.6,N
1541576115.1,286047005.0,N
1541576135.8,286047007.6,N
1541576155.7,286047008.5,N
1541576175.5,286047008.5,N
1541576195.4,286047009.0,N
1541576215.2,286047010.7,N
1541576235.0,286047006.4,N
1541576235.9,286047006.4,N
1541576255.8,286047005.3,N
1541576275.6,286047003.4,N
1541576295.4,286047003.3,N
1541576315.3,286047004.4,N
1541576335.1,286047001.3,N
1541576355.9,286047004.4,N
1541576375.7,286047002.7,N
1541576395.5,286047000.0,N
1541576415.4,286046998.8,N
1541576435.2,286047001.2,N
1541576455.0,286046998.1,N
1541576456.0,286046998.1,N
1541576475.8,286046996.7,N
1541576495.6,286046997.9,N
1541576515.5,286046995.7,N
1541576535.3,286046994.8,N
1541576555.1,286046990.5,N
1541576575.9,286046989.3,N
1541576595.7,286046988.1,N
1541576615.6,286046988.0,N
1541576635.4,286046987.2,N
1541576655.2,286046985.6,N
1541576675.1,286046985.3,N
1541576676.0,286046985.3,N
1541576695.8,286046986.5,N
1541576715.6,286046982.6,N
1541576735.5,286046984.8,N
1541576755.3,286046984.7,N
1541576775.2,286046982.8,N
1541576795.9,286046984.1,N
1541576815.7,286046987.6,N
1541576835.6,286046986.9,N
1541576855.4,286046988.1,N
1541576875.2,286046986.5,N
1541576895.1,286046986.3,N
1541576896.0,286046986.3,N
1541576915.8,286046986.6,N
1541576935.7,286046987.8,N
1541576955.5,286046989.7,N
1541576975.3,286046989.6,N
1541576995.2,286046990.9,N
1541577015.0,286046992.9,N
1541577015.9,286046992.9,N
1541577035.7,286046990.5,N
1541577055.6,286046991.5,N
1541577075.4,286046992.4,N
1541577095.3,286046996.1,N
1541577115.1,286046996.9,N
1541577116.0,286046996.9,N
1541577135.8,286046999.0,N
1541577155.7,286046996.9,N
1541577175.5,286046997.5,N
1541577195.3,286046996.7,N
1541577215.2,286046995.1,N
1541577235.0,286046998.5,N
1541577235.9,286046998.5,N
1541577255.8,286046996.6,N
1541577275.6,286046996.3,N
1541577295.4,286046994.6,N
1541577315.3,286046992.1,N
1541577335.1,286046989.7,N
1541577355.8,286046985.9,Y
1541577375.7,286046992.1,P
1541577395.5,286046992.5,P
1541577415.4,286046993.8,P
1541577435.2,286046996.3,Y
1541577455.0,286047004.4,P
1541577455.9,286047004.4,N
1541577475.8,286047001.8,N
1541577495.6,286046999.9,N
1541577515.4,286047002.8,N
1541577535.3,286047000.5,N
1541577555.1,286047003.8,N
1541577575.9,286047003.0,N
1541577595.7,286047003.3,N
